Powrót do katalogu

STARLINK-34757

AktywnyŁącznośćSSO
NORAD 64850·PAYLOAD·🇺🇸 United States

Wystrzelony Jul 19, 2025 z Vandenberg Space Force Base

Loading…

Następne Przeloty (najbliższe 24 godziny)

TLE

ŚwieżeSource: CelesTrak SupGP

Epoka: Sep 15, 2026, 03:54 UTC

1 64850C 25152J   26258.16298611 -.00081603  00000+0 -25328-2 0  2584
2 64850  97.2841 108.7855 0001849  92.0378 332.6529 15.33484535    13

Śledź STARLINK-34757 w czasie rzeczywistym z AllMySat

Download on the App Store